Location: Stigler
(35.2540°N, 95.1230°W)
Time: 06:01:51
(UTC-05:00)

Daily predictions for brighter satellites

Satellite Brightness Start Highest point End
(mag) Time Altitude Azimuth Time Altitude Azimuth Time Altitude Azimuth
Cosmos 2173 Rocket 4.5 20:43:20 10° SSW 20:49:40 71° W 20:56:02 10° N
GPS 2-04 Rocket1 3.2 20:47:09 10° W 20:51:12 53° SSW 20:55:21 10° ESE
Okean 1 3.7 20:49:29 10° SSE 20:53:19 43° E 20:57:11 10° NNE
Cosmos 1570 Rocket 4.1 20:49:24 10° S 20:54:39 65° ESE 20:59:58 10° NNE
Cosmos 1184 Rocket 3.9 20:51:38 10° SSW 20:54:53 50° W 20:58:10 10° N
Cosmos 909 Rocket 4.4 20:49:16 10° NNW 20:55:42 80° WSW 21:03:16 10° SSE
NOSS 3-2 (A) 3.5 20:50:42 10° SSW 20:56:29 88° WNW 21:02:52 10° NNE
Centaur D-1A AC-31 2.6 20:46:39 10° WSW 20:57:00 41° SSW 21:00:31 10° ESE
Cosmos 304 Rocket 3.8 20:53:03 10° SSW 20:57:51 82° ESE 21:02:40 10° NNE
Timation 2 Rocket 4.0 20:54:56 10° S 21:00:41 53° ESE 21:06:32 10° NNE
USA 234 3.3 20:54:28 10° NE 21:00:56 59° SE 21:07:24 10° SSW
NOSS 3-2 (C) 3.3 20:56:48 10° SSW 21:02:34 72° ESE 21:08:52 10° NE
Meteor 1-18 Rocket 4.3 20:57:53 10° S 21:03:40 73° E 21:09:34 10° NNE
Cosmos 1939 Rocket 2.9 21:00:05 10° SSE 21:04:08 68° ENE 21:08:16 10° N
Abrixas rocket 4.0 21:06:27 10° W 21:09:25 34° NNW 21:12:24 10° NE
ISS -0.8 21:08:25 10° WNW 21:10:45 18° NNW 21:13:05 10° NNE
Resurs 1-3 3.6 21:07:26 10° SSE 21:11:46 65° ENE 21:16:07 10° N
Cosmos 2016 Rocket 4.4 21:05:52 10° SSW 21:11:55 66° W 21:18:02 10° N
USA 186 2.4 21:15:00 10° S 21:18:06 57° W 21:21:25 10° NNW
Cosmos 1898 Rocket 4.1 21:13:36 10° N 21:18:36 40° ENE 21:22:49 14° SE
NOAA 11 4.4 21:13:36 10° SSE 21:18:56 57° ENE 21:24:16 10° N
ARGOS 4.4 21:15:18 12° ESE 21:19:13 26° ENE 21:23:37 10° NNE
Cosmos 1814 Rocket 4.4 21:14:49 10° S 21:19:41 41° ESE 21:24:38 10° NNE
Tiangong 2 3.1 21:17:01 10° WNW 21:19:49 29° NNW 21:22:38 10° NE
Cosmos 2322 Rocket 3.0 21:17:05 10° N 21:22:14 36° ENE 21:26:19 15° ESE
CENTAUR R/B 2.7 21:17:01 10° S 21:22:23 42° ESE 21:28:25 10° NE
H-2A R/B 3.5 21:19:42 12° ESE 21:22:41 20° ENE 21:26:17 10° NNE
Cosmos 1725 Rocket 4.3 21:18:23 10° SSW 21:24:32 73° W 21:30:45 10° N
Cosmos 2208 Rocket 4.3 21:21:28 10° SSW 21:26:38 72° WNW 21:31:49 10° NNE
Cosmos 1340 Rocket 4.2 21:25:14 16° SE 21:27:00 22° E 21:30:07 10° NE
Cosmos 1378 Rocket 4.1 21:24:51 10° SSW 21:29:06 60° W 21:33:22 10° N
Tsikada Rocket 4.1 21:22:58 10° N 21:29:25 88° E 21:35:50 10° S
SL-16 R/B 2.7 21:26:18 10° N 21:31:46 46° ENE 21:35:43 18° SE
Cosmos 1975 Rocket 3.0 21:28:43 10° S 21:33:00 64° E 21:37:16 10° NNE
Shenzhou-11 Module 4.2 21:30:55 10° NW 21:33:14 20° N 21:35:33 10° ENE
YAOGAN 6 4.0 21:30:06 10° SSW 21:33:33 37° W 21:37:01 10° NNW
IUS-9 SRM-1 4.4 21:31:08 10° WSW 21:35:07 41° S 21:51:22 10° ESE
ATLAS 3B R/B 4.4 21:29:57 10° WSW 21:36:33 38° NW 21:42:58 10° NNE
Okean 1 Rocket 3.4 21:33:35 10° NNW 21:37:53 64° W 21:42:09 10° S
Meteor 1-13 Rocket 4.5 21:33:11 10° S 21:38:54 55° E 21:44:42 10° NNE
Cosmos 1242 Rocket 2.6 21:37:43 10° N 21:41:20 60° E 21:43:19 24° SSE
Aureole 2 Rocket 4.1 21:41:30 10° NNE 21:43:02 13° ENE 21:43:07 13° ENE
Cosmos 1544 Rocket 4.3 21:48:48 10° N 21:52:56 37° E 21:54:28 28° ESE
Cosmos 1975 3.7 21:55:26 10° NNW 21:59:19 47° W 22:02:39 13° SSW
SL-08 RB Rocket 4.1 21:58:55 30° SE 22:00:40 45° ENE 22:05:02 10° N
Atlas Centaur 2 2.2 21:58:30 10° WSW 22:01:44 26° SSW 22:02:01 26° S
Resurs 01 Rocket 3.2 21:59:46 10° SSW 22:03:41 32° W 22:07:37 10° NW
SJ 16-02 3.0 22:01:22 10° NNE 22:04:32 19° ENE 22:05:18 18° ENE
Cosmos 1536 Rocket 4.0 22:05:18 35° SE 22:06:23 42° E 22:10:36 10° NNE
Spot 2 Rocket 4.3 22:02:27 11° S 22:07:01 47° W 22:11:53 10° NNW
Cosmos 1072 Rocket 4.5 22:03:30 16° S 22:08:39 71° E 22:14:54 10° N
Cosmos 540 Rocket 3.6 22:06:54 27° SSE 22:09:29 51° ESE 22:14:30 10° NNE
OAO 1 Rocket 4.4 22:05:10 10° W 22:10:31 89° S 22:13:32 27° E
ATLAS CENTAUR R/B 4.1 22:08:39 10° WNW 22:11:26 16° WSW 22:14:15 10° SW
Cosmos 1666 4.0 22:08:07 10° NNW 22:11:43 38° W 22:14:25 16° SSW
Cosmos 2360 Rocket 2.9 22:06:44 10° N 22:12:02 40° ENE 22:14:04 30° ESE
Cosmos 1980 Rocket 4.3 22:10:08 10° NW 22:14:20 22° W 22:18:31 10° SSW
Helios 1B rocket 3.9 22:11:30 10° NE 22:13:58 23° ENE 22:13:58 23° ENE
Cosmos 2219 Rocket 4.3 22:13:20 10° NNE 22:15:31 12° NE 22:17:36 10° ENE
Cosmos 1937 Rocket 3.5 22:11:16 10° NNW 22:16:25 80° WSW 22:18:49 32° S
Cosmos 2298 Rocket 3.9 22:12:01 10° NNW 22:17:20 80° ENE 22:19:29 37° SSE
Cosmos 1763 Rocket 4.5 22:12:30 10° SW 22:17:37 49° WNW 22:22:45 10° N
DELTA 2 R/B (1) 4.3 22:15:46 10° SSW 22:19:31 31° S 22:19:31 31° S
Cosmos 249 4.5 22:18:48 10° NNW 22:22:30 77° ENE 22:22:53 67° ESE
Cosmos 841 Rocket 3.9 22:18:02 10° SSW 22:23:13 64° WNW 22:28:27 10° N
Cosmos 1743 4.5 22:21:06 10° NNW 22:24:23 28° W 22:26:47 15° SW
Meteor 2-9 Rocket 4.1 22:20:01 10° NNW 22:25:22 78° W 22:28:01 31° S
MetOp-A 4.3 22:25:56 30° S 22:28:35 72° WSW 22:33:57 10° NNW
SPOT 5 3.2 22:28:41 40° E 22:29:05 41° ENE 22:33:20 10° N
USA 32 4.0 22:24:07 10° N 22:29:22 79° W 22:31:43 34° S
Meteor 1-23 Rocket 4.1 22:30:58 31° S 22:33:47 87° E 22:39:22 10° N
Terra 3.2 22:33:59 24° ENE 22:34:12 24° ENE 22:37:59 10° NNE
BREEZE-M DEB (TANK) 3.6 22:35:08 10° WNW 22:37:49 42° SW 22:38:02 42° SSW
Cosmos 2333 Rocket 4.0 22:34:29 10° NNE 22:38:09 17° NE 22:39:38 16° ENE
COSMOS 2428 3.8 22:36:39 10° N 22:41:31 29° ENE 22:42:36 27° E
Lacrosse 5 rocket 2.4 22:38:54 10° NNW 22:42:48 34° NE 22:43:05 33° NE
BREEZE M DEB (TANK) 2.3 22:40:39 10° NW 22:47:52 84° NE 22:47:56 83° ENE
ERS-1 Rocket 3.1 22:47:46 48° SSW 22:49:01 68° WSW 22:54:03 10° NNW
Cosmos 1025 Rocket 3.3 22:51:30 54° NE 22:51:30 54° NE 22:55:11 10° NNE
Cosmos 2034 Rocket 4.0 22:48:16 33° SSW 22:51:12 80° W 22:57:23 10° N
USA 245 3.7 22:53:53 53° WNW 22:53:53 53° WNW 22:57:32 10° NNW
Cosmos 2297 Rocket 4.4 22:59:44 12° ENE 22:59:44 12° ENE 23:00:20 10° ENE
Tiangong 2 3.5 22:54:42 10° NW 22:57:08 20° N 22:57:22 20° N
SPOT 1/Viking Rocket 3.4 22:57:28 69° SSE 22:58:05 85° ENE 23:03:16 10° NNW
ARGOS 4.4 22:56:49 24° SW 22:59:15 35° W 23:04:11 10° NNW
Cosmos 2227 Rocket 4.1 23:02:54 15° ENE 23:02:54 15° ENE 23:04:20 10° NE
H-2A R/B 3.0 23:00:19 31° SW 23:01:48 39° W 23:06:28 10° NNW
Cosmos 2322 3.5 22:59:16 10° NNW 23:05:01 83° ENE 23:05:41 70° SE
Cosmos 2322 Rocket 3.8 23:01:29 10° NW 23:06:03 26° WSW 23:08:08 21° SW
Cosmos 2237 Rocket 4.1 23:06:26 10° NNE 23:10:07 17° NE 23:11:02 17° ENE
Cosmos 1066 Rocket 3.9 23:12:12 82° SE 23:12:22 84° E 23:17:48 10° N
CENTAUR R/B 4.3 23:07:53 10° WSW 23:13:08 31° NW 23:19:03 10° NNE
Cosmos 1125 Rocket 3.4 23:08:46 10° NNW 23:13:59 81° ENE 23:13:59 81° ENE
SL-16 R/B 4.1 23:11:23 10° NW 23:15:27 20° W 23:17:37 17° SW
Helios 1A 3.9 23:18:35 42° W 23:18:35 42° W 23:22:07 10° NNW
Cosmos 1634 Rocket 3.9 23:17:54 65° ESE 23:18:19 67° E 23:24:36 10° NNE
Cosmos 2219 3.1 23:30:45 81° WSW 23:30:58 83° WNW 23:36:45 10° NNE
Meteor 1-22 Rocket 4.5 23:29:11 10° N 23:33:40 52° NE 23:33:40 52° NE
SJ 16-02 2.9 23:39:14 10° NW 23:42:18 29° WNW 23:42:18 29° WNW
CZ-4C R/B 2.9 23:39:50 10° NNW 23:47:18 78° ENE 23:48:29 66° ESE
COSMOS 2455 3.6 23:50:51 41° ENE 23:50:51 41° ENE 23:54:56 10° NE
